| time (UTC) | temp C | wind direction | speed KPH | gust KPH | rain 1hr cm | rain 24hr cm | rain mn cm | humidity % | barometer mb |
| 20260901070038 | 18 | 354 | 9.7 | 24.1 | 0.00 | 0.00 | 0.00 | 59 | 1012.0 |
| 20260901064538 | 18 | 329 | 8.0 | 17.7 | 0.00 | 0.00 | 0.00 | 58 | 1012.0 |
| 20260901063037 | 18 | 312 | 6.4 | 20.9 | 0.00 | 0.00 | 0.00 | 57 | 1012.2 |
| 20260901061531 | 19 | 333 | 11.3 | 24.1 | 0.00 | 0.00 | 0.00 | 55 | 1012.1 |
| 20260901060031 | 19 | 328 | 11.3 | 29.0 | 0.00 | 0.00 | 0.00 | 54 | 1012.0 |
| 20260901054532 | 19 | 338 | 14.5 | 24.1 | 0.00 | 0.00 | 0.00 | 53 | 1012.2 |
| 20260901053034 | 19 | 325 | 11.3 | 27.4 | 0.00 | 0.00 | 0.00 | 53 | 1012.2 |
| 20260901051530 | 19 | 327 | 8.0 | 24.1 | 0.00 | 0.00 | 0.00 | 53 | 1012.3 |
| 20260901050029 | 20 | 271 | 4.8 | 12.9 | 0.00 | 0.00 | 0.00 | 53 | 1012.5 |
| 20260901044529 | 20 | 321 | 8.0 | 25.7 | 0.00 | 0.00 | 0.00 | 50 | 1012.1 |
| 20260901043028 | 20 | 316 | 14.5 | 37.0 | 0.00 | 0.00 | 0.00 | 51 | 1011.9 |
| 20260901041526 | 20 | 338 | 8.0 | 25.7 | 0.00 | 0.00 | 0.00 | 51 | 1011.9 |
| 20260901040028 | 20 | 334 | 14.5 | 30.6 | 0.00 | 0.00 | 0.00 | 52 | 1011.9 |
| 20260901034523 | 20 | 314 | 14.5 | 40.2 | 0.00 | 0.00 | 0.00 | 52 | 1012.2 |
| 20260901033034 | 20 | 320 | 16.1 | 41.8 | 0.00 | 0.00 | 0.00 | 51 | 1012.5 |
| 20260901031516 | 20 | 326 | 22.5 | 41.8 | 0.00 | 0.00 | 0.00 | 51 | 1013.1 |
| 20260901030014 | 20 | 275 | 17.7 | 46.7 | 0.00 | 0.00 | 0.00 | 50 | 1013.6 |
| 20260901024510 | 20 | 332 | 16.1 | 41.8 | 0.00 | 0.00 | 0.00 | 52 | 1014.0 |
| 20260901023008 | 20 | 331 | 16.1 | 38.6 | 0.00 | 0.00 | 0.00 | 50 | 1014.4 |
| 20260901021505 | 20 | 270 | 11.3 | 37.0 | 0.00 | 0.00 | 0.00 | 50 | 1014.8 |
| 20260901020002 | 20 | 302 | 17.7 | 40.2 | 0.00 | 0.00 | 0.00 | 49 | 1015.2 |
| 20260901014603 | 20 | 313 | 17.7 | 33.8 | 0.00 | 0.00 | 0.00 | 49 | 1015.4 |
| 20260901013055 | 20 | 318 | 9.7 | 40.2 | 0.00 | 0.00 | 0.00 | 52 | 1016.0 |
| 20260901011651 | 19 | 333 | 12.9 | 33.8 | 0.00 | 0.00 | 0.00 | 51 | 1016.3 |
| 20260901010050 | 19 | 6 | 16.1 | 29.0 | 0.00 | 0.00 | 0.00 | 51 | 1016.4 |
| 20260901004547 | 18 | 319 | 11.3 | 33.8 | 0.00 | 0.00 | 0.00 | 54 | 1016.6 |
| 20260901003054 | 18 | 335 | 16.1 | 27.4 | 0.00 | 0.00 | 0.00 | 53 | 1016.6 |
| 20260901001542 | 18 | 312 | 9.7 | 33.8 | 0.00 | 0.00 | 0.00 | 55 | 1016.9 |
| 20260901000038 | 17 | 305 | 11.3 | 32.2 | 0.00 | 0.00 | 0.00 | 54 | 1017.1 |
| 20260831234539 | 17 | 359 | 3.2 | 14.5 | 0.00 | 0.00 | 0.00 | 67 | 1017.3 |
| 20260831233029 | 16 | 359 | 6.4 | 22.5 | 0.00 | 0.00 | 0.00 | 69 | 1017.5 |
| 20260831231526 | 15 | 38 | 3.2 | 14.5 | 0.00 | 0.00 | 0.00 | 72 | 1018.1 |
| 20260831230025 | 15 | 72 | 4.8 | 19.3 | 0.00 | 0.00 | 0.00 | 73 | 1018.2 |
| 20260831224518 | 14 | 34 | 6.4 | 19.3 | 0.00 | 0.00 | 0.00 | 74 | 1018.6 |
| 20260831223015 | 14 | 56 | 3.2 | 11.3 | 0.00 | 0.00 | 0.00 | 74 | 1018.8 |
| 20260831221521 | 13 | 55 | 4.8 | 9.7 | 0.00 | 0.00 | 0.00 | 73 | 1019.2 |
| 20260831220019 | 13 | 23 | 9.7 | 19.3 | 0.00 | 0.00 | 0.00 | 74 | 1019.2 |
| 20260831214506 | 13 | 22 | 11.3 | 16.1 | 0.00 | 0.00 | 0.00 | 75 | 1019.6 |
| 20260831213004 | 12 | 346 | 9.7 | 17.7 | 0.00 | 0.00 | 0.00 | 76 | 1019.7 |
| 20260831211559 | 12 | 19 | 9.7 | 12.9 | 0.00 | 0.00 | 0.00 | 77 | 1019.7 |
| 20260831210157 | 11 | 15 | 4.8 | 12.9 | 0.00 | 0.00 | 0.00 | 80 | 1019.8 |
| 20260831204600 | 11 | 15 | 4.8 | 16.1 | 0.00 | 0.00 | 0.00 | 80 | 1019.8 |
| 20260831203116 | 11 | 345 | 4.8 | 9.7 | 0.00 | 0.00 | 0.00 | 81 | 1019.6 |
| 20260831201552 | 11 | 1 | 3.2 | 8.0 | 0.00 | 0.00 | 0.00 | 81 | 1019.7 |
| 20260831200054 | 11 | 333 | 3.2 | 6.4 | 0.00 | 0.00 | 0.00 | 82 | 1019.9 |
| 20260831194549 | 11 | 25 | 3.2 | 8.0 | 0.00 | 0.00 | 0.00 | 82 | 1020.1 |
| 20260831193051 | 10 | 9 | 3.2 | 6.4 | 0.00 | 0.00 | 0.00 | 81 | 1020.2 |
| 20260831191547 | 10 | 325 | 0.0 | 4.8 | 0.00 | 0.00 | 0.00 | 82 | 1020.4 |
| 20260831190056 | 10 | 278 | 0.0 | 3.2 | 0.00 | 0.00 | 0.00 | 83 | 1020.5 |
| 20260831184543 | 9 | 290 | 1.6 | 4.8 | 0.00 | 0.00 | 0.00 | 85 | 1020.4 |
| 20260831183043 | 8 | 291 | 1.6 | 3.2 | 0.00 | 0.00 | 0.00 | 83 | 1020.5 |
| 20260831181552 | 9 | 269 | 4.8 | 8.0 | 0.00 | 0.00 | 0.00 | 80 | 1020.9 |
| 20260831180039 | 10 | 332 | 3.2 | 6.4 | 0.00 | 0.00 | 0.00 | 79 | 1020.7 |
| 20260831174549 | 11 | 316 | 1.6 | 9.7 | 0.00 | 0.00 | 0.00 | 76 | 1021.0 |
| 20260831173036 | 11 | 321 | 4.8 | 11.3 | 0.00 | 0.00 | 0.00 | 77 | 1021.1 |
| 20260831171534 | 11 | 25 | 9.7 | 16.1 | 0.00 | 0.00 | 0.00 | 78 | 1021.3 |
| 20260831170036 | 11 | 344 | 8.0 | 17.7 | 0.00 | 0.00 | 0.00 | 76 | 1021.6 |
| 20260831164527 | 11 | 358 | 8.0 | 14.5 | 0.00 | 0.00 | 0.00 | 76 | 1021.8 |
| 20260831163022 | 10 | 313 | 3.2 | 4.8 | 0.00 | 0.00 | 0.00 | 76 | 1022.1 |
| 20260831161519 | 10 | 331 | 6.4 | 12.9 | 0.00 | 0.00 | 0.00 | 76 | 1022.3 |
| 20260831160034 | 9 | 311 | 0.0 | 4.8 | 0.00 | 0.00 | 0.00 | 77 | 1022.6 |
| 20260831154514 | 9 | 316 | 0.0 | 3.2 | 0.00 | 0.00 | 0.00 | 77 | 1022.7 |
| 20260831153029 | 9 | 319 | 0.0 | 4.8 | 0.00 | 0.00 | 0.00 | 77 | 1022.9 |
| 20260831151508 | 9 | 333 | 1.6 | 4.8 | 0.00 | 0.00 | 0.00 | 79 | 1023.1 |
| 20260831150005 | 8 | 283 | 0.0 | 3.2 | 0.00 | 0.00 | 0.00 | 84 | 1023.2 |
| 20260831144607 | 7 | 283 | 1.6 | 1.6 | 0.00 | 0.00 | 0.00 | 89 | 1023.4 |
| 20260831143100 | 7 | 283 | 0.0 | 1.6 | 0.00 | 0.00 | 0.00 | 90 | 1023.5 |
| 20260831141555 | 7 | 283 | 0.0 | 1.6 | 0.00 | 0.00 | 0.00 | 90 | 1023.7 |
| 20260831140052 | 6 | 283 | 0.0 | 4.8 | 0.00 | 0.00 | 0.00 | 88 | 1023.8 |
| 20260831134548 | 7 | 274 | 3.2 | 4.8 | 0.00 | 0.00 | 0.00 | 87 | 1024.2 |
| 20260831133047 | 8 | 285 | 3.2 | 4.8 | 0.00 | 0.00 | 0.00 | 84 | 1024.6 |
| 20260831131547 | 10 | 272 | 1.6 | 3.2 | 0.00 | 0.00 | 0.00 | 84 | 1024.8 |
| 20260831130053 | 10 | 22 | 1.6 | 6.4 | 0.00 | 0.00 | 0.00 | 84 | 1024.9 |
| 20260831124542 | 10 | 69 | 3.2 | 8.0 | 0.00 | 0.00 | 0.00 | 85 | 1025.1 |
| 20260831123047 | 10 | 30 | 1.6 | 8.0 | 0.00 | 0.00 | 0.00 | 85 | 1025.3 |
| 20260831121542 | 10 | 341 | 1.6 | 4.8 | 0.00 | 0.00 | 0.00 | 85 | 1025.5 |
| 20260831120109 | 11 | 77 | 0.0 | 6.4 | 0.00 | 0.00 | 0.00 | 83 | 1025.5 |
| 20260831114535 | 11 | 20 | 3.2 | 8.0 | 0.00 | 0.00 | 0.00 | 83 | 1025.7 |
| 20260831113034 | 10 | 29 | 1.6 | 6.4 | 0.00 | 0.00 | 0.00 | 84 | 1025.9 |
| 20260831111539 | 10 | 37 | 3.2 | 6.4 | 0.00 | 0.00 | 0.00 | 85 | 1025.9 |
| 20260831110035 | 10 | 348 | 0.0 | 3.2 | 0.00 | 0.00 | 0.00 | 84 | 1025.9 |
| 20260831104538 | 10 | 107 | 0.0 | 1.6 | 0.00 | 0.00 | 0.00 | 84 | 1026.0 |
| 20260831103030 | 10 | 107 | 0.0 | 0.0 | 0.00 | 0.00 | 0.00 | 83 | 1026.0 |
| 20260831101534 | 10 | 107 | 0.0 | 0.0 | 0.00 | 0.00 | 0.00 | 83 | 1026.2 |
| 20260831100029 | 11 | 107 | 0.0 | 0.0 | 0.00 | 0.00 | 0.00 | 82 | 1026.3 |
| 20260831094527 | 11 | 107 | 0.0 | 1.6 | 0.00 | 0.00 | 0.00 | 82 | 1026.3 |
| 20260831093025 | 11 | 107 | 0.0 | 3.2 | 0.00 | 0.00 | 0.00 | 82 | 1026.5 |
| 20260831091528 | 11 | 108 | 1.6 | 3.2 | 0.00 | 0.00 | 0.00 | 82 | 1026.5 |
| 20260831090027 | 11 | 96 | 0.0 | 3.2 | 0.00 | 0.00 | 0.00 | 82 | 1026.5 |
| 20260831084528 | 12 | 96 | 1.6 | 4.8 | 0.00 | 0.00 | 0.00 | 80 | 1026.6 |
| 20260831083025 | 12 | 111 | 1.6 | 4.8 | 0.00 | 0.00 | 0.00 | 80 | 1026.6 |
| 20260831081533 | 13 | 94 | 1.6 | 3.2 | 0.00 | 0.00 | 0.00 | 78 | 1026.7 |
| 20260831080020 | 13 | 89 | 1.6 | 3.2 | 0.00 | 0.00 | 0.00 | 77 | 1026.8 |
| 20260831074521 | 14 | 86 | 1.6 | 3.2 | 0.00 | 0.00 | 0.00 | 74 | 1026.7 |
| 20260831073023 | 15 | 67 | 0.0 | 4.8 | 0.00 | 0.00 | 0.00 | 73 | 1026.7 |
| 20260831071519 | 16 | 89 | 0.0 | 4.8 | 0.00 | 0.00 | 0.00 | 71 | 1026.7 |